星链-32165 (STARLINK-32165)

导读 | 豆包AI

STARLINK-32165是美国SpaceX公司于2024年8月20日发射的星链(Starlink)低轨通信卫星,属于星链星座大规模组网的一员,运行于近地轨道。星链项目旨在为全球提供高速低延迟互联网接入,尤其覆盖偏远区域,该卫星大概率为V2 Mini版本,支持直连手机等功能,具备更强通信带宽,助力星链完成全球服务覆盖,也因星座规模引发太空轨道与天文观测争议。

Basic Information
目录编号:
60599
目录名称:
STARLINK-32165
国际标识:
2024-150S
轨道中心:
EARTH
卫星名称:
星链-32165 (STARLINK-32165)
卫星全名:
星链-32165 (STARLINK-32165)
卫星状态:
在轨 (已飞行619 天)
发射日期:
2024-08-20 UTC
国别 :
美国 (US)
星等 :
--
Orbit Information
数据来源 国际轨道数据 AOE轨道数据
星历时间 2026-05-01T07:32:53+0800
5小时前
查看轨道信息
2026-04-29T01:00:00+0800
2天前
查看轨道信息
半长轴 6853.365km 6853.35km
偏心率 0.0001331 0.000141
轨道倾角 53.161° 53.156°
近地点辐角 81.689° 85.246°
升交点赤经 64.404° 74.967°
平近点角 278.426° 347.485°
近地点 474.315km 474.246km
远地点 476.141km 476.18km
周期 94.106分钟 94.105分钟
每日圈数 15.301958 15.30201
Detailed Information
卫星平台:
Starlink v2.0 mini
运营商:
太空探索技术公司
运营商所在国:
美国
制造商(研发单位):
太空探索技术公司
制造商所在国:
美国
使用方式:
暂无
Satellite Introduction
星链(Starlink)计划是由太空探索技术公司(SpaceX)提出的一个巨型低轨卫星互联网星座项目,计划在2019年至2024年间在太空搭建由约1.2万颗卫星组成的“星链”网络,其中1584颗将部署在地球上空550千米处的近地轨道,并从2020年开始工作。该卫星仍在工作。
2D Orbit Map
3D Orbit Map
Orbit Altitude Analysis Chart
Orbit Inclination Analysis Chart
Orbit Comprehensive Analysis Chart
View Comprehensive Chart